Location: Newark
(49.8969°N, 3.3422°E)
Time: 01:09:10
(UTC+00:00)

Vanguard 1 Rocket - Pass Details

Date: 29 January 2020
Orbit: 650 x 4226 km, 34.3° (Epoch: 26 February)

Event Time Altitude Azimuth Distance (km) Brightness Sun altitude
Rises 12:20:11 0° 260° (W) 4,637 11.2 22.0°
Reaches altitude 10° 12:23:01 10° 251° (WSW) 4,023 11.1 21.9°
Maximum altitude 12:33:02 36° 190° (S) 3,558 12.5 21.7°
Drops below altitude 10° 12:50:04 10° 134° (SE) 6,774 12.3 21.2°
Sets 12:56:52 0° 128° (SE) 8,176 12.6 20.9°
